[[{"header":{"parameterUnit":"m.s-1","parameterCategory":1,"la1":30.2991,"la2":30.254,"lo1":-89.0895,"lo2":-89.0444,"dy":0.0017,"dx":0.0017,"nx":28,"ny":28,"refTime":"2025-11-20T09:00:00:Z","depth":0,"parameterNumber":2,"parameterNumberName":"U-component_of_WINDS"},"data":[0,0,0,0,0,0,0,0,0,0,0,0,0,0,0,0,0,0,0,0,0,0,0,0,0,0,0,0,0,0,0,0,0,0,0,0,0,0,0,0,0,0,0,0,0,0,0,0,0,0,0,0,0,0,0,0,0,0,-2.8595,-2.8595,0,-2.8621,-2.8621,-2.8621,-2.8565,-2.8563,-2.8561,-2.8559,-2.8584,-2.8586,-2.8589,0,0,0,0,0,0,0,0,0,0,0,0,0,-2.8497,-2.8499,-2.8595,-2.8595,-2.8596,-2.862,-2.8621,-2.8621,-2.8565,-2.8563,-2.8561,-2.8559,-2.8583,-2.8586,-2.8589,0,0,0,0,0,0,0,0,0,0,0,0,0,-2.8533,-2.85,-2.8595,-2.8571,-2.8569,-2.862,-2.8621,-2.8621,-2.8566,-2.8563,-2.856,-2.8558,-2.8583,-2.8586,-2.8589,-2.8665,0,0,-2.86,-2.8602,0,0,0,0,0,0,0,0,-2.8531,-2.8536,-2.8574,-2.8572,-2.857,-2.8587,-2.8595,-2.8636,-2.8566,-2.8567,-2.8559,-2.8556,-2.8587,-2.859,-2.8601,-2.8667,-2.8668,-2.86,-2.8603,-2.8604,-2.8605,0,0,0,0,0,0,0,-2.8528,-2.8535,-2.8605,-2.8574,-2.8572,-2.8558,-2.856,-2.8603,-2.8592,-2.8566,-2.8562,-2.8566,-2.8586,-2.8598,-2.8601,-2.8668,-2.86,-2.8603,-2.8606,-2.8607,-2.8798,-2.88,0,0,0,0,0,0,-2.8529,-2.8533,-2.8604,-2.8606,-2.8543,-2.8562,-2.8565,-2.8584,-2.8591,-2.859,-2.8569,-2.8564,-2.8593,-2.8597,-2.8602,-2.869,-2.8604,-2.8607,-2.8609,-2.8795,-2.8798,-2.8801,0,0,0,0,0,0,-2.8527,-2.8536,-2.8603,-2.8568,-2.8576,-2.8567,-2.8589,-2.8586,-2.8598,-2.8593,-2.859,-2.8583,-2.8591,-2.8597,-2.865,-2.8691,-2.8609,-2.8612,-2.8791,-2.8796,-2.88,-2.8869,0,0,0,0,0,0,-2.8525,-2.8536,-2.8564,-2.8569,-2.8578,-2.8651,-2.8592,-2.8589,-2.8604,-2.8598,-2.8605,-2.8604,-2.8589,-2.8645,-2.8654,-2.8694,-2.8615,-2.8787,-2.8793,-2.8798,-2.8863,-2.8876,-2.8886,0,0,0,0,0,-2.8521,-2.8582,-2.8566,-2.8575,-2.8614,-2.8654,-2.8659,-2.8641,-2.8608,-2.8636,-2.8633,-2.8604,-2.8685,-2.8651,-2.866,-2.8702,-2.8785,-2.8792,-2.8798,-2.8858,-2.8873,-2.8886,0,0,0,0,0,0,-2.8581,-2.8583,-2.8564,-2.8629,-2.8642,-2.8644,-2.868,-2.8657,-2.8679,-2.8672,-2.8648,-2.8651,-2.8709,-2.8711,-2.8673,-2.8776,-2.8729,-2.8738,-2.8772,-2.8786,-2.8798,-2.8795,-2.8618,0,0,0,0,0,-2.8602,-2.8635,-2.8634,-2.8692,-2.8699,-2.8689,-2.8705,-2.8691,-2.8703,-2.8708,-2.8708,-2.8721,-2.8749,-2.8768,-2.8794,-2.8864,-2.8865,-2.8898,-2.8909,-2.8919,-2.8926,-2.8963,-2.8977,-2.8823,-2.8823,-2.8823,0,0,-2.8645,-2.865,-2.8672,-2.8704,-2.8712,-2.8746,-2.8693,-2.8732,-2.8757,-2.8713,-2.8763,-2.8765,-2.8777,-2.884,-2.8867,-2.8843,-2.8969,-2.8927,-2.8935,-2.8937,-2.8971,-2.8986,-2.8999,-2.8828,-2.8827,-2.8826,0,0,-2.8741,-2.8749,-2.8797,-2.8807,-2.882,-2.8813,-2.8825,-2.8831,-2.8831,-2.8881,-2.8849,-2.8879,-2.8928,-2.8939,-2.895,-2.9052,-2.9026,-2.9062,-2.912,-2.9157,-2.9169,-2.9179,-2.9215,-2.9228,-2.9069,-2.9069,-2.907,0,-2.8792,-2.8843,-2.8824,-2.8865,-2.888,-2.8844,-2.8893,-2.8903,-2.8924,-2.8935,-2.8909,-2.897,-2.8976,-2.904,-2.9065,-2.9076,-2.9089,-2.9059,-2.9169,-2.9179,-2.9189,-2.9222,-2.9236,-2.9074,-2.9073,-2.9073,-2.9072,0,-2.8905,-2.8941,-2.8979,-2.9001,-2.902,-2.9065,-2.9053,-2.9075,-2.9059,-2.9055,-2.9107,-2.9113,-2.914,-2.9154,-2.9139,-2.9217,-2.9201,-2.9173,-2.9124,-2.9208,-2.9239,-2.9252,-2.908,-2.9078,-2.9077,-2.9076,0,0,-2.9037,-2.905,-2.9064,-2.9073,-2.9087,-2.9114,-2.9157,-2.9184,-2.9203,-2.9219,-2.9254,-2.9298,-2.9272,-2.9285,-2.9271,-2.9304,-2.9383,-2.9271,-2.927,-2.929,-2.9468,-2.9488,-2.9504,-2.9367,-2.9369,-2.9371,-2.9467,0,-2.9131,-2.9205,-2.9191,-2.9263,-2.9296,-2.9263,-2.9301,-2.9313,-2.9311,-2.9339,-2.9336,-2.9367,-2.933,-2.9338,-2.9369,-2.9367,-2.9418,-2.936,-2.9398,-2.94,-2.9394,-2.952,-2.9541,-2.9631,-2.9479,-2.9481,-2.9482,0,-2.9249,-2.9271,-2.9347,-2.9356,-2.9369,-2.9403,-2.9427,-2.9454,-2.9467,-2.9464,-2.948,-2.946,-2.9503,-2.9457,-2.9515,-2.9476,-2.9491,-2.9493,-2.9496,-2.9497,-2.9444,-2.9523,-2.9659,-2.9672,-2.9501,-2.95,-2.9498,0,-2.9336,-2.9385,-2.9436,-2.9446,-2.9458,-2.9483,-2.9489,-2.95,-2.9517,-2.9538,-2.9549,-2.9575,-2.9588,-2.9609,-2.9596,-2.9564,-2.9657,-2.961,-2.9654,-2.9655,-2.9673,-2.9672,-2.9812,-2.9687,-2.9686,-2.9686,-2.9686,0,-2.9441,-2.9489,-2.9476,-2.9507,-2.956,-2.9544,-2.9596,-2.9598,-2.9609,-2.964,-2.9614,-2.9644,-2.9627,-2.9655,-2.9646,-2.9696,-2.9703,-2.97,-2.9697,-2.9702,-2.9702,-2.9709,-2.9702,-2.969,-2.9689,-2.9688,-2.9688,0,-2.9545,-2.9539,-2.9593,-2.9601,-2.9604,-2.9642,-2.9648,-2.9678,-2.9675,-2.9715,-2.9724,-2.9719,-2.9751,-2.9742,-2.9777,-2.9771,-2.9833,-2.9823,-2.9829,-2.9825,-2.987,-2.9865,-3.0019,-3.0037,-2.9901,-2.9903,-2.9904,0,-2.9612,-2.9648,-2.966,-2.9679,-2.9688,-2.9719,-2.9737,-2.9723,-2.9743,-2.9762,-2.9789,-2.982,-2.9843,-2.9897,-2.9896,-2.9923,-2.9912,-2.9964,-2.9915,-2.9919,-2.9911,-2.9908,-2.9911,-2.9973,-2.9974,-2.9976,-2.9977,0,-2.973,-2.9725,-2.9752,-2.9779,-2.9801,-2.9821,-2.9839,-2.9856,-2.9844,-2.9867,-2.9901,-2.9919,-2.9956,-2.9986,-3.0011,-3.0017,-2.9994,-2.9992,-3.0004,-3.0008,-3.0009,-3.0007,-2.9853,-2.9988,-2.9987,-2.9986,-2.9986,-2.9985,-2.9816,-2.9847,-2.986,-2.9891,-2.9904,-2.9921,-2.9949,-2.9951,-2.9978,-3.0007,-2.9998,-3.0036,-3.0049,-3.008,-3.009,-3.0119,-3.0099,-3.0116,-3.012,-3.0124,-3.0129,-3.0006,-3.0124,-3.0124,-3.0123,-3.0123,-3.0123,0,-2.9932,-2.9939,-2.9968,-2.9994,-3.0019,-2.9998,-3.0017,-3.0038,-3.0073,-3.0087,-3.0112,-3.015,-3.018,-3.0183,-3.0211,-3.0234,-3.0224,-3.0241,-3.0238,-3.024,-3.0146,-3.0133,-3.0249,-3.0249,-3.0249,-3.0249,-3.0249,-3.0249,-2.9994,-3.0045,-3.0042,-3.0099,-3.0106,-3.0143,-3.0156,-3.0172,-3.0184,-3.0228,-3.0253,-3.0255,-3.0265,-3.0294,-3.032,-3.032,-3.0331,-3.0352,-3.0348,-3.0259,-3.0247,-3.0235,-3.0222,-3.0355,-3.0355,-3.0439,-3.044,-3.0441]},{"header":{"parameterUnit":"m.s-1","parameterCategory":1,"la1":30.2991,"la2":30.254,"lo1":-89.0895,"lo2":-89.0444,"dy":0.0017,"dx":0.0017,"nx":28,"ny":28,"refTime":"2025-11-20T09:00:00:Z","depth":0,"parameterNumber":3,"parameterNumberName":"V-component_of_WINDS"},"data":[0,0,0,0,0,0,0,0,0,0,0,0,0,0,0,0,0,0,0,0,0,0,0,0,0,0,0,0,0,0,0,0,0,0,0,0,0,0,0,0,0,0,0,0,0,0,0,0,0,0,0,0,0,0,0,0,0,0,-0.0121,-0.0121,0,-0.0035,-0.0034,-0.0033,0.0013,0.0013,0.0013,0.0013,0.0104,0.0107,0.0109,0,0,0,0,0,0,0,0,0,0,0,0,0,-0.0244,-0.0242,-0.0122,-0.012,-0.0119,-0.0035,-0.0034,-0.0032,0.0013,0.0013,0.0013,0.0013,0.0103,0.0106,0.0109,0,0,0,0,0,0,0,0,0,0,0,0,0,-0.0177,-0.0241,-0.0122,-0.0087,-0.0083,-0.0035,-0.0033,-0.0032,0.0013,0.0013,0.0013,0.0013,0.0103,0.0106,0.0109,0.013,0,0,0.012,0.0122,0,0,0,0,0,0,0,0,-0.0181,-0.0173,-0.0093,-0.0089,-0.0085,-0.0022,-0.0043,0.0022,0.0013,-0.0024,0.0013,0.0013,0.0062,0.0069,0.0085,0.0134,0.0138,0.0121,0.0123,0.0124,0.0125,0,0,0,0,0,0,0,-0.0186,-0.0176,-0.0087,-0.0092,-0.0087,-0.0074,-0.0064,-0.003,0.0018,-0.002,-0.0017,-0.0007,0.0065,0.0082,0.0088,0.0139,0.0121,0.0124,0.0126,0.0127,0.0214,0.0214,0,0,0,0,0,0,-0.0196,-0.018,-0.009,-0.0084,-0.0134,-0.0072,-0.0061,-0.0042,0.0018,0.0027,-0.0007,-0.0006,0.0076,0.0084,0.0091,0.0122,0.0124,0.0128,0.013,0.0214,0.0214,0.0214,0,0,0,0,0,0,-0.0199,-0.0189,-0.0093,-0.0131,-0.0118,-0.007,-0.0049,-0.004,-0.0023,0.0027,0.0037,0.0001,0.0076,0.0086,0.0121,0.0126,0.0129,0.0133,0.0214,0.0214,0.0214,0.0181,0,0,0,0,0,0,-0.0203,-0.019,-0.0183,-0.0132,-0.0116,-0.0067,-0.0048,-0.0039,-0.0017,-0.0014,0.0038,0.0046,0.0077,0.0115,0.0124,0.0131,0.0135,0.0213,0.0214,0.0214,0.0182,0.018,0.0179,0,0,0,0,0,-0.0207,-0.0196,-0.0183,-0.0173,-0.0107,-0.0067,-0.0058,-0.0024,-0.0017,-0.0009,0.0024,0.0045,0.0123,0.0118,0.0129,0.0136,0.0213,0.0214,0.0214,0.0183,0.0181,0.0179,0,0,0,0,0,0,-0.0249,-0.0189,-0.0174,-0.0146,-0.0112,-0.0059,-0.0048,-0.0028,0.0006,0.0007,0.005,0.0061,0.0092,0.0118,0.0111,0.0162,0.0171,0.0173,0.0143,0.0142,0.014,0.0134,0.0138,0,0,0,0,0,-0.0255,-0.0229,-0.0177,-0.0157,-0.0141,-0.0098,-0.0079,-0.0055,-0.0018,-0.0003,0.0033,0.0069,0.0103,0.0123,0.0157,0.0186,0.02,0.0197,0.0195,0.0194,0.0195,0.0217,0.0217,0.0215,0.0215,0.0215,0,0,-0.0267,-0.0231,-0.0217,-0.0165,-0.0136,-0.0107,-0.0086,-0.0058,-0.0035,0.0002,0.0037,0.0064,0.0108,0.0141,0.0157,0.0163,0.0199,0.0194,0.0192,0.0195,0.0217,0.0217,0.0217,0.0215,0.0215,0.0215,0,0,-0.0274,-0.0245,-0.0224,-0.0195,-0.015,-0.0121,-0.0116,-0.0065,-0.0046,-0.001,0.002,0.0048,0.0103,0.0134,0.0157,0.0166,0.0187,0.0176,0.0167,0.0187,0.0187,0.0188,0.0193,0.0195,0.0177,0.0177,0.0177,0,-0.0294,-0.0252,-0.0216,-0.0188,-0.0165,-0.0129,-0.0106,-0.0079,-0.0026,-0.001,-0.0004,0.007,0.0101,0.0144,0.0146,0.0163,0.0172,0.017,0.0184,0.0185,0.0186,0.0192,0.0194,0.0176,0.0176,0.0176,0.0176,0,-0.0278,-0.0248,-0.0236,-0.0185,-0.016,-0.0136,-0.0093,-0.0072,-0.0049,-0.002,0.0018,0.0058,0.0102,0.0114,0.0135,0.016,0.0163,0.0176,0.0186,0.0184,0.019,0.0193,0.0174,0.0174,0.0175,0.0175,0,0,-0.031,-0.0238,-0.0234,-0.0209,-0.0156,-0.0131,-0.0103,-0.006,-0.0042,-0.0005,0.0021,0.0069,0.0083,0.0109,0.0135,0.0153,0.0161,0.0164,0.0166,0.0164,0.0194,0.0185,0.0187,0.0175,0.0176,0.0176,0.0191,0,-0.0309,-0.0258,-0.0222,-0.0184,-0.0154,-0.0119,-0.0093,-0.0057,-0.0028,0.0003,0.0036,0.0071,0.0084,0.0101,0.012,0.0155,0.0168,0.0155,0.0202,0.0204,0.0191,0.019,0.0179,0.0191,0.0194,0.0194,0.0194,0,-0.0301,-0.0265,-0.0223,-0.017,-0.0156,-0.0135,-0.0091,-0.0063,-0.0019,0.0001,0.0032,0.006,0.0094,0.0101,0.0151,0.0141,0.0164,0.0184,0.0186,0.0192,0.0199,0.0198,0.0196,0.0198,0.0198,0.0198,0.0198,0,-0.0326,-0.0267,-0.0234,-0.0214,-0.0152,-0.0136,-0.011,-0.0066,-0.0041,-0.0003,0.0015,0.0057,0.008,0.0114,0.0153,0.0154,0.02,0.0209,0.022,0.0219,0.0228,0.0227,0.0231,0.0239,0.0239,0.0239,0.0239,0,-0.0327,-0.0303,-0.0244,-0.0224,-0.0194,-0.0152,-0.0124,-0.0093,-0.0054,-0.0025,0.0008,0.0035,0.0085,0.0118,0.0149,0.0188,0.0197,0.0217,0.0225,0.0214,0.0212,0.023,0.0231,0.024,0.024,0.024,0.0239,0,-0.0351,-0.0311,-0.0272,-0.0215,-0.02,-0.0181,-0.0131,-0.0108,-0.0076,-0.004,-0.0029,0.0022,0.0064,0.0106,0.0162,0.0184,0.0222,0.0232,0.0207,0.0211,0.022,0.0219,0.0236,0.0242,0.0245,0.0245,0.0245,0,-0.0354,-0.0334,-0.0275,-0.0253,-0.0227,-0.0193,-0.0167,-0.0124,-0.0098,-0.0045,-0.0028,0.0016,0.0054,0.012,0.0163,0.0207,0.022,0.0223,0.0226,0.0216,0.0222,0.0221,0.0225,0.0221,0.0221,0.0221,0.0221,0,-0.0363,-0.0343,-0.0308,-0.0265,-0.0235,-0.0198,-0.0161,-0.0145,-0.0094,-0.0066,-0.0023,0.0006,0.0065,0.011,0.016,0.019,0.0215,0.0219,0.0225,0.0214,0.02,0.021,0.0204,0.0219,0.0219,0.0219,0.0219,0.0219,-0.0375,-0.0354,-0.0308,-0.0269,-0.0236,-0.0201,-0.0175,-0.0139,-0.0103,-0.0052,-0.0029,0.0015,0.0063,0.0132,0.0162,0.0199,0.0206,0.0212,0.0214,0.0216,0.0215,0.0193,0.0208,0.0208,0.0208,0.0208,0.0209,0,-0.038,-0.0348,-0.0312,-0.026,-0.0228,-0.0208,-0.0164,-0.0138,-0.01,-0.0059,-0.0022,0.003,0.0074,0.0122,0.017,0.019,0.0203,0.0202,0.0201,0.0209,0.0204,0.0196,0.0191,0.0191,0.0191,0.0191,0.0191,0.0191,-0.0379,-0.0342,-0.0316,-0.0261,-0.0229,-0.0186,-0.0162,-0.0128,-0.0094,-0.0038,-0.0001,0.0029,0.0075,0.0127,0.0169,0.0183,0.02,0.0195,0.0212,0.0207,0.0208,0.0209,0.0202,0.0198,0.0198,0.0213,0.0213,0.0213]}]]